| time (UTC) | temp F | wind direction | speed MPH | gust MPH | rain 1hr in | rain 24hr in | rain mn in | humidity % | barometer mb |
| 20260509001840 | 69 | 281 | 1.0 | 6.0 | 0.00 | 0.00 | 0.00 | 23 | 998.8 |
| 20260509001345 | 70 | 293 | 0.0 | 5.0 | 0.00 | 0.00 | 0.00 | 23 | 998.8 |
| 20260509000840 | 70 | 255 | 1.0 | 6.0 | 0.00 | 0.00 | 0.00 | 24 | 998.8 |
| 20260509000326 | 70 | 273 | 0.0 | 6.0 | 0.00 | 0.00 | 0.00 | 23 | 998.8 |
| 20260508235846 | 70 | 261 | 0.0 | 7.0 | 0.00 | 0.00 | 0.00 | 24 | 998.9 |
| 20260508235341 | 70 | 5 | 0.0 | 7.0 | 0.00 | 0.00 | 0.00 | 23 | 998.8 |
| 20260508234836 | 70 | 337 | 0.0 | 4.0 | 0.00 | 0.00 | 0.00 | 24 | 998.8 |
| 20260508234321 | 70 | 321 | 0.0 | 5.0 | 0.00 | 0.00 | 0.00 | 23 | 998.8 |
| 20260508233827 | 70 | 288 | 1.0 | 5.0 | 0.00 | 0.00 | 0.00 | 23 | 998.9 |
| 20260508233325 | 71 | 300 | 0.0 | 4.0 | 0.00 | 0.00 | 0.00 | 23 | 998.9 |
| 20260508232826 | 71 | 325 | 1.0 | 4.0 | 0.00 | 0.00 | 0.00 | 22 | 998.9 |
| 20260508232314 | 71 | 300 | 0.0 | 4.0 | 0.00 | 0.00 | 0.00 | 24 | 998.9 |
| 20260508231850 | 70 | 311 | 0.0 | 4.0 | 0.00 | 0.00 | 0.00 | 23 | 998.9 |
| 20260508231333 | 70 | 338 | 0.0 | 6.0 | 0.00 | 0.00 | 0.00 | 23 | 999.0 |
| 20260508230829 | 71 | 17 | 1.0 | 6.0 | 0.00 | 0.00 | 0.00 | 23 | 999.0 |
| 20260508230316 | 71 | 311 | 0.0 | 2.0 | 0.00 | 0.00 | 0.00 | 23 | 999.0 |
| 20260508225819 | 71 | 273 | 0.0 | 4.0 | 0.00 | 0.00 | 0.00 | 23 | 998.9 |
| 20260508225335 | 71 | 279 | 0.0 | 4.0 | 0.00 | 0.00 | 0.00 | 23 | 998.9 |
| 20260508224824 | 71 | 324 | 0.0 | 6.0 | 0.00 | 0.00 | 0.00 | 24 | 998.9 |
| 20260508224321 | 71 | 295 | 0.0 | 6.0 | 0.00 | 0.00 | 0.00 | 24 | 998.9 |
| 20260508223817 | 70 | 282 | 0.0 | 2.0 | 0.00 | 0.00 | 0.00 | 25 | 998.9 |
| 20260508223335 | 70 | 280 | 0.0 | 5.0 | 0.00 | 0.00 | 0.00 | 25 | 999.0 |
| 20260508222831 | 70 | 246 | 1.0 | 7.0 | 0.00 | 0.00 | 0.00 | 24 | 999.0 |
| 20260508222319 | 71 | 258 | 0.0 | 5.0 | 0.00 | 0.00 | 0.00 | 24 | 999.0 |
| 20260508221836 | 71 | 243 | 0.0 | 4.0 | 0.00 | 0.00 | 0.00 | 24 | 999.1 |
| 20260508221340 | 71 | 275 | 0.0 | 4.0 | 0.00 | 0.00 | 0.00 | 25 | 999.1 |
| 20260508220827 | 70 | 304 | 0.0 | 2.0 | 0.00 | 0.00 | 0.00 | 26 | 999.2 |
| 20260508220323 | 70 | 269 | 0.0 | 4.0 | 0.00 | 0.00 | 0.00 | 25 | 999.2 |
| 20260508215819 | 70 | 302 | 0.0 | 4.0 | 0.00 | 0.00 | 0.00 | 24 | 999.3 |
| 20260508215336 | 70 | 276 | 1.0 | 5.0 | 0.00 | 0.00 | 0.00 | 24 | 999.4 |
| 20260508214831 | 70 | 306 | 0.0 | 5.0 | 0.00 | 0.00 | 0.00 | 24 | 999.4 |
| 20260508214335 | 70 | 271 | 0.0 | 4.0 | 0.00 | 0.00 | 0.00 | 24 | 999.5 |
| 20260508213823 | 70 | 280 | 1.0 | 3.0 | 0.00 | 0.00 | 0.00 | 25 | 999.5 |
| 20260508213339 | 70 | 329 | 0.0 | 5.0 | 0.00 | 0.00 | 0.00 | 24 | 999.5 |
| 20260508212842 | 71 | 267 | 0.0 | 5.0 | 0.00 | 0.00 | 0.00 | 24 | 999.5 |
| 20260508212337 | 71 | 284 | 1.0 | 6.0 | 0.00 | 0.00 | 0.00 | 24 | 999.6 |
| 20260508211824 | 71 | 278 | 1.0 | 6.0 | 0.00 | 0.00 | 0.00 | 24 | 999.6 |
| 20260508211329 | 70 | 285 | 1.0 | 5.0 | 0.00 | 0.00 | 0.00 | 24 | 999.7 |
| 20260508210814 | 70 | 343 | 0.0 | 5.0 | 0.00 | 0.00 | 0.00 | 23 | 999.8 |
| 20260508210331 | 70 | 305 | 0.0 | 5.0 | 0.00 | 0.00 | 0.00 | 24 | 999.9 |
| 20260508205859 | 70 | 233 | 1.0 | 4.0 | 0.00 | 0.00 | 0.00 | 24 | 999.9 |
| 20260508205324 | 70 | 288 | 0.0 | 8.0 | 0.00 | 0.00 | 0.00 | 23 | 1000.1 |
| 20260508204840 | 70 | 286 | 2.0 | 8.0 | 0.00 | 0.00 | 0.00 | 23 | 1000.1 |
| 20260508204314 | 70 | 286 | 0.0 | 4.0 | 0.00 | 0.00 | 0.00 | 24 | 1000.2 |
| 20260508203851 | 70 | 298 | 1.0 | 7.0 | 0.00 | 0.00 | 0.00 | 23 | 1000.3 |
| 20260508203327 | 70 | 293 | 0.0 | 7.0 | 0.00 | 0.00 | 0.00 | 24 | 1000.6 |
| 20260508202830 | 70 | 277 | 1.0 | 5.0 | 0.00 | 0.00 | 0.00 | 23 | 1000.3 |
| 20260508202318 | 70 | 227 | 1.0 | 5.0 | 0.00 | 0.00 | 0.00 | 23 | 1000.4 |
| 20260508201815 | 69 | 292 | 0.0 | 4.0 | 0.00 | 0.00 | 0.00 | 24 | 1000.6 |
| 20260508201318 | 69 | 266 | 1.0 | 4.0 | 0.00 | 0.00 | 0.00 | 24 | 1000.6 |
| 20260508200825 | 69 | 242 | 0.0 | 5.0 | 0.00 | 0.00 | 0.00 | 24 | 1000.8 |
| 20260508200322 | 69 | 268 | 1.0 | 5.0 | 0.00 | 0.00 | 0.00 | 23 | 1000.8 |
| 20260508195843 | 69 | 257 | 1.0 | 4.0 | 0.00 | 0.00 | 0.00 | 25 | 1000.9 |
| 20260508195319 | 69 | 288 | 0.0 | 5.0 | 0.00 | 0.00 | 0.00 | 24 | 1001.0 |
| 20260508194827 | 69 | 286 | 1.0 | 5.0 | 0.00 | 0.00 | 0.00 | 24 | 1001.1 |
| 20260508194330 | 69 | 282 | 1.0 | 6.0 | 0.00 | 0.00 | 0.00 | 24 | 1001.2 |
| 20260508193827 | 69 | 261 | 1.0 | 6.0 | 0.00 | 0.00 | 0.00 | 24 | 1001.2 |
| 20260508193314 | 69 | 284 | 1.0 | 6.0 | 0.00 | 0.00 | 0.00 | 25 | 1001.3 |
| 20260508192817 | 69 | 257 | 1.0 | 6.0 | 0.00 | 0.00 | 0.00 | 24 | 1001.3 |
| 20260508192351 | 68 | 277 | 0.0 | 5.0 | 0.00 | 0.00 | 0.00 | 24 | 1001.4 |
| 20260508191826 | 68 | 278 | 1.0 | 5.0 | 0.00 | 0.00 | 0.00 | 27 | 1001.5 |
| 20260508191329 | 67 | 257 | 1.0 | 6.0 | 0.00 | 0.00 | 0.00 | 24 | 1001.5 |
| 20260508190816 | 68 | 263 | 1.0 | 6.0 | 0.00 | 0.00 | 0.00 | 24 | 1001.5 |
| 20260508190332 | 68 | 279 | 0.0 | 4.0 | 0.00 | 0.00 | 0.00 | 24 | 1001.7 |
| 20260508185814 | 68 | 241 | 1.0 | 4.0 | 0.00 | 0.00 | 0.00 | 25 | 1001.8 |
| 20260508185323 | 68 | 254 | 1.0 | 4.0 | 0.00 | 0.00 | 0.00 | 26 | 1001.8 |
| 20260508184821 | 68 | 194 | 0.0 | 2.0 | 0.00 | 0.00 | 0.00 | 26 | 1001.9 |
| 20260508184320 | 67 | 306 | 0.0 | 2.0 | 0.00 | 0.00 | 0.00 | 27 | 1001.9 |
| 20260508183856 | 66 | 259 | 0.0 | 1.0 | 0.00 | 0.00 | 0.00 | 27 | 1002.0 |
| 20260508183324 | 66 | 277 | 0.0 | 4.0 | 0.00 | 0.00 | 0.00 | 25 | 1002.2 |
| 20260508182820 | 66 | 299 | 0.0 | 4.0 | 0.00 | 0.00 | 0.00 | 25 | 1002.2 |
| 20260508182316 | 66 | 267 | 0.0 | 4.0 | 0.00 | 0.00 | 0.00 | 25 | 1002.2 |
| 20260508181833 | 66 | 333 | 0.0 | 7.0 | 0.00 | 0.00 | 0.00 | 26 | 1002.3 |
| 20260508181336 | 67 | 232 | 0.0 | 4.0 | 0.00 | 0.00 | 0.00 | 27 | 1002.3 |
| 20260508180845 | 67 | 313 | 0.0 | 4.0 | 0.00 | 0.00 | 0.00 | 26 | 1002.4 |
| 20260508180320 | 67 | 311 | 0.0 | 2.0 | 0.00 | 0.00 | 0.00 | 26 | 1002.4 |
| 20260508175822 | 66 | 223 | 0.0 | 5.0 | 0.00 | 0.00 | 0.00 | 26 | 1002.5 |
| 20260508175336 | 66 | 289 | 0.0 | 5.0 | 0.00 | 0.00 | 0.00 | 27 | 1002.7 |
| 20260508174823 | 65 | 330 | 0.0 | 4.0 | 0.00 | 0.00 | 0.00 | 27 | 1002.7 |
| 20260508174320 | 65 | 39 | 0.0 | 4.0 | 0.00 | 0.00 | 0.00 | 28 | 1002.8 |
| 20260508173838 | 66 | 321 | 0.0 | 4.0 | 0.00 | 0.00 | 0.00 | 27 | 1002.9 |
| 20260508173323 | 65 | 335 | 0.0 | 1.0 | 0.00 | 0.00 | 0.00 | 29 | 1003.0 |
| 20260508172827 | 65 | 244 | 0.0 | 1.0 | 0.00 | 0.00 | 0.00 | 28 | 1003.1 |
| 20260508172343 | 65 | 318 | 0.0 | 2.0 | 0.00 | 0.00 | 0.00 | 27 | 1003.2 |
| 20260508171839 | 64 | 329 | 0.0 | 2.0 | 0.00 | 0.00 | 0.00 | 27 | 1003.3 |
| 20260508171341 | 64 | 349 | 0.0 | 1.0 | 0.00 | 0.00 | 0.00 | 27 | 1003.4 |
| 20260508170836 | 64 | 5 | 0.0 | 8.0 | 0.00 | 0.00 | 0.00 | 29 | 1003.5 |
| 20260508170324 | 64 | 276 | 0.0 | 8.0 | 0.00 | 0.00 | 0.00 | 28 | 1003.5 |
| 20260508165819 | 64 | 264 | 0.0 | 1.0 | 0.00 | 0.00 | 0.00 | 29 | 1003.5 |
| 20260508165316 | 64 | 323 | 0.0 | 1.0 | 0.00 | 0.00 | 0.00 | 28 | 1003.6 |
| 20260508164831 | 64 | 257 | 0.0 | 2.0 | 0.00 | 0.00 | 0.00 | 30 | 1003.6 |
| 20260508164335 | 63 | 286 | 0.0 | 2.0 | 0.00 | 0.00 | 0.00 | 29 | 1003.7 |
| 20260508163824 | 63 | 288 | 0.0 | 1.0 | 0.00 | 0.00 | 0.00 | 31 | 1003.8 |
| 20260508163341 | 63 | 277 | 0.0 | 2.0 | 0.00 | 0.00 | 0.00 | 30 | 1003.8 |
| 20260508162824 | 62 | 266 | 0.0 | 2.0 | 0.00 | 0.00 | 0.00 | 29 | 1003.8 |
| 20260508162328 | 62 | 250 | 0.0 | 1.0 | 0.00 | 0.00 | 0.00 | 31 | 1003.8 |
| 20260508161844 | 62 | 271 | 0.0 | 0.0 | 0.00 | 0.00 | 0.00 | 31 | 1003.8 |
| 20260508161347 | 61 | 252 | 0.0 | 2.0 | 0.00 | 0.00 | 0.00 | 35 | 1003.9 |
| 20260508160842 | 61 | 242 | 0.0 | 1.0 | 0.00 | 0.00 | 0.00 | 34 | 1004.0 |
| 20260508160338 | 60 | 298 | 0.0 | 0.0 | 0.00 | 0.00 | 0.00 | 38 | 1004.1 |
| 20260508155819 | 60 | 249 | 0.0 | 1.0 | 0.00 | 0.00 | 0.00 | 37 | 1004.1 |
| 20260508155336 | 59 | 296 | 0.0 | 1.0 | 0.00 | 0.00 | 0.00 | 39 | 1004.1 |
| 20260508154824 | 58 | 220 | 0.0 | 1.0 | 0.00 | 0.00 | 0.00 | 39 | 1004.1 |
| 20260508154319 | 58 | 272 | 0.0 | 0.0 | 0.00 | 0.00 | 0.00 | 40 | 1004.2 |
| 20260508153816 | 57 | 225 | 0.0 | 0.0 | 0.00 | 0.00 | 0.00 | 41 | 1004.2 |
| 20260508153323 | 56 | 257 | 0.0 | 0.0 | 0.00 | 0.00 | 0.00 | 42 | 1004.4 |
| 20260508152824 | 56 | 246 | 0.0 | 0.0 | 0.00 | 0.00 | 0.00 | 44 | 1004.5 |
| 20260508152321 | 56 | 209 | 0.0 | 0.0 | 0.00 | 0.00 | 0.00 | 42 | 1004.5 |
| 20260508151838 | 56 | 207 | 0.0 | 0.0 | 0.00 | 0.00 | 0.00 | 43 | 1004.5 |
| 20260508151319 | 55 | 225 | 0.0 | 1.0 | 0.00 | 0.00 | 0.00 | 42 | 1004.6 |
| 20260508150819 | 55 | 211 | 0.0 | 4.0 | 0.00 | 0.00 | 0.00 | 43 | 1004.6 |
| 20260508150316 | 55 | 225 | 0.0 | 4.0 | 0.00 | 0.00 | 0.00 | 42 | 1004.7 |
| 20260508145817 | 55 | 249 | 0.0 | 7.0 | 0.00 | 0.00 | 0.00 | 42 | 1004.8 |
| 20260508145323 | 54 | 213 | 0.0 | 7.0 | 0.00 | 0.00 | 0.00 | 44 | 1004.9 |
| 20260508144819 | 54 | 211 | 0.0 | 0.0 | 0.00 | 0.00 | 0.00 | 44 | 1004.8 |
| 20260508144316 | 54 | 219 | 0.0 | 1.0 | 0.00 | 0.00 | 0.00 | 43 | 1004.9 |
| 20260508143834 | 53 | 213 | 0.0 | 1.0 | 0.00 | 0.00 | 0.00 | 42 | 1005.0 |
| 20260508143322 | 53 | 229 | 0.0 | 0.0 | 0.00 | 0.00 | 0.00 | 44 | 1005.2 |
| 20260508142854 | 53 | 262 | 0.0 | 0.0 | 0.00 | 0.00 | 0.00 | 44 | 1005.2 |
| 20260508142320 | 52 | 252 | 0.0 | 0.0 | 0.00 | 0.00 | 0.00 | 46 | 1005.3 |
| 20260508141837 | 52 | 227 | 0.0 | 0.0 | 0.00 | 0.00 | 0.00 | 49 | 1005.0 |
| 20260508141340 | 51 | 307 | 0.0 | 0.0 | 0.00 | 0.00 | 0.00 | 47 | 1005.1 |
| 20260508140836 | 51 | 227 | 0.0 | 0.0 | 0.00 | 0.00 | 0.00 | 49 | 1005.1 |
| 20260508140323 | 50 | 203 | 0.0 | 0.0 | 0.00 | 0.00 | 0.00 | 48 | 1005.2 |
| 20260508135825 | 50 | 232 | 0.0 | 0.0 | 0.00 | 0.00 | 0.00 | 47 | 1005.3 |
| 20260508135342 | 50 | 249 | 0.0 | 0.0 | 0.00 | 0.00 | 0.00 | 48 | 1005.3 |
| 20260508134829 | 50 | 213 | 0.0 | 0.0 | 0.00 | 0.00 | 0.00 | 49 | 1005.4 |
| 20260508134348 | 50 | 221 | 0.0 | 0.0 | 0.00 | 0.00 | 0.00 | 50 | 1005.5 |
| 20260508133824 | 49 | 222 | 0.0 | 0.0 | 0.00 | 0.00 | 0.00 | 50 | 1005.6 |
| 20260508133340 | 49 | 222 | 0.0 | 0.0 | 0.00 | 0.00 | 0.00 | 50 | 1005.5 |
| 20260508132814 | 49 | 240 | 0.0 | 0.0 | 0.00 | 0.00 | 0.00 | 51 | 1005.5 |
| 20260508132351 | 49 | 219 | 0.0 | 0.0 | 0.00 | 0.00 | 0.00 | 52 | 1005.5 |
| 20260508131826 | 48 | 219 | 0.0 | 0.0 | 0.00 | 0.00 | 0.00 | 51 | 1005.6 |
| 20260508131323 | 48 | 207 | 0.0 | 0.0 | 0.00 | 0.00 | 0.00 | 53 | 1005.5 |
| 20260508130840 | 47 | 203 | 0.0 | 0.0 | 0.00 | 0.00 | 0.00 | 54 | 1005.6 |
| 20260508130327 | 47 | 244 | 0.0 | 0.0 | 0.00 | 0.00 | 0.00 | 59 | 1005.7 |
| 20260508125853 | 46 | 244 | 0.0 | 0.0 | 0.00 | 0.00 | 0.00 | 60 | 1005.7 |
| 20260508125317 | 46 | 244 | 0.0 | 0.0 | 0.00 | 0.00 | 0.00 | 66 | 1005.7 |
| 20260508124854 | 45 | 244 | 0.0 | 0.0 | 0.00 | 0.00 | 0.00 | 69 | 1005.7 |
| 20260508124334 | 44 | 244 | 0.0 | 0.0 | 0.00 | 0.00 | 0.00 | 70 | 1005.7 |
| 20260508123830 | 43 | 244 | 0.0 | 0.0 | 0.00 | 0.00 | 0.00 | 74 | 1005.7 |
| 20260508123315 | 43 | 244 | 0.0 | 0.0 | 0.00 | 0.00 | 0.00 | 76 | 1005.7 |
| 20260508122829 | 42 | 244 | 0.0 | 0.0 | 0.00 | 0.00 | 0.00 | 77 | 1005.7 |
| 20260508122316 | 41 | 244 | 0.0 | 0.0 | 0.00 | 0.00 | 0.00 | 77 | 1005.6 |
| 20260508121827 | 41 | 244 | 0.0 | 0.0 | 0.00 | 0.00 | 0.00 | 77 | 1005.6 |
| 20260508121331 | 40 | 244 | 0.0 | 0.0 | 0.00 | 0.00 | 0.00 | 76 | 1005.6 |
| 20260508120818 | 40 | 244 | 0.0 | 0.0 | 0.00 | 0.00 | 0.00 | 74 | 1005.5 |
| 20260508120334 | 40 | 244 | 0.0 | 0.0 | 0.00 | 0.00 | 0.00 | 74 | 1005.5 |
| 20260508115839 | 39 | 244 | 0.0 | 0.0 | 0.00 | 0.00 | 0.00 | 74 | 1005.5 |
| 20260508115327 | 39 | 244 | 0.0 | 0.0 | 0.00 | 0.00 | 0.00 | 72 | 1005.5 |
| 20260508114824 | 39 | 244 | 0.0 | 0.0 | 0.00 | 0.00 | 0.00 | 71 | 1005.5 |
| 20260508114327 | 39 | 244 | 0.0 | 0.0 | 0.00 | 0.00 | 0.00 | 70 | 1005.5 |
| 20260508113831 | 39 | 244 | 0.0 | 0.0 | 0.00 | 0.00 | 0.00 | 68 | 1005.5 |
| 20260508113327 | 39 | 244 | 0.0 | 0.0 | 0.00 | 0.00 | 0.00 | 68 | 1005.4 |
| 20260508112824 | 39 | 244 | 0.0 | 0.0 | 0.00 | 0.00 | 0.00 | 68 | 1005.4 |
| 20260508112341 | 39 | 244 | 0.0 | 0.0 | 0.00 | 0.00 | 0.00 | 68 | 1005.3 |
| 20260508111828 | 39 | 244 | 0.0 | 0.0 | 0.00 | 0.00 | 0.00 | 68 | 1005.3 |
| 20260508111401 | 39 | 244 | 0.0 | 0.0 | 0.00 | 0.00 | 0.00 | 68 | 1005.3 |
| 20260508110826 | 40 | 244 | 0.0 | 0.0 | 0.00 | 0.00 | 0.00 | 68 | 1005.4 |
| 20260508110343 | 40 | 244 | 0.0 | 0.0 | 0.00 | 0.00 | 0.00 | 67 | 1005.3 |
| 20260508105825 | 40 | 244 | 0.0 | 0.0 | 0.00 | 0.00 | 0.00 | 67 | 1005.4 |
| 20260508105332 | 40 | 244 | 0.0 | 0.0 | 0.00 | 0.00 | 0.00 | 68 | 1005.4 |
| 20260508104829 | 41 | 244 | 0.0 | 0.0 | 0.00 | 0.00 | 0.00 | 68 | 1005.4 |
| 20260508104321 | 41 | 244 | 0.0 | 0.0 | 0.00 | 0.00 | 0.00 | 64 | 1005.4 |
| 20260508103838 | 41 | 244 | 0.0 | 0.0 | 0.00 | 0.00 | 0.00 | 62 | 1005.4 |
| 20260508103325 | 41 | 244 | 0.0 | 0.0 | 0.00 | 0.00 | 0.00 | 60 | 1005.4 |
| 20260508102827 | 41 | 244 | 0.0 | 0.0 | 0.00 | 0.00 | 0.00 | 58 | 1005.5 |
| 20260508102323 | 42 | 244 | 0.0 | 0.0 | 0.00 | 0.00 | 0.00 | 57 | 1005.5 |
| 20260508101831 | 42 | 244 | 0.0 | 0.0 | 0.00 | 0.00 | 0.00 | 57 | 1005.5 |
| 20260508101402 | 42 | 244 | 0.0 | 0.0 | 0.00 | 0.00 | 0.00 | 57 | 1005.5 |
| 20260508100849 | 42 | 244 | 0.0 | 0.0 | 0.00 | 0.00 | 0.00 | 57 | 1005.5 |
| 20260508100324 | 42 | 244 | 0.0 | 0.0 | 0.00 | 0.00 | 0.00 | 57 | 1005.5 |
| 20260508095847 | 42 | 244 | 0.0 | 0.0 | 0.00 | 0.00 | 0.00 | 56 | 1005.5 |
| 20260508095322 | 42 | 244 | 0.0 | 0.0 | 0.00 | 0.00 | 0.00 | 56 | 1005.5 |
| 20260508094859 | 43 | 244 | 0.0 | 0.0 | 0.00 | 0.00 | 0.00 | 56 | 1005.5 |
| 20260508094342 | 43 | 242 | 0.0 | 0.0 | 0.00 | 0.00 | 0.00 | 56 | 1005.5 |
| 20260508093829 | 43 | 242 | 0.0 | 0.0 | 0.00 | 0.00 | 0.00 | 56 | 1005.5 |
| 20260508093347 | 43 | 246 | 0.0 | 0.0 | 0.00 | 0.00 | 0.00 | 56 | 1005.5 |
| 20260508092819 | 43 | 240 | 0.0 | 0.0 | 0.00 | 0.00 | 0.00 | 57 | 1005.5 |
| 20260508092316 | 43 | 236 | 0.0 | 0.0 | 0.00 | 0.00 | 0.00 | 58 | 1005.5 |
| 20260508091832 | 43 | 233 | 0.0 | 0.0 | 0.00 | 0.00 | 0.00 | 59 | 1005.5 |
| 20260508091336 | 43 | 224 | 0.0 | 0.0 | 0.00 | 0.00 | 0.00 | 60 | 1005.4 |
| 20260508090822 | 42 | 229 | 0.0 | 0.0 | 0.00 | 0.00 | 0.00 | 60 | 1005.5 |
| 20260508090319 | 42 | 234 | 0.0 | 0.0 | 0.00 | 0.00 | 0.00 | 60 | 1005.5 |
| 20260508085821 | 42 | 237 | 0.0 | 0.0 | 0.00 | 0.00 | 0.00 | 60 | 1005.4 |
| 20260508085337 | 42 | 237 | 0.0 | 0.0 | 0.00 | 0.00 | 0.00 | 60 | 1005.5 |
| 20260508084825 | 42 | 237 | 0.0 | 0.0 | 0.00 | 0.00 | 0.00 | 60 | 1005.5 |
| 20260508084328 | 42 | 238 | 0.0 | 0.0 | 0.00 | 0.00 | 0.00 | 60 | 1005.5 |
| 20260508083845 | 43 | 236 | 0.0 | 0.0 | 0.00 | 0.00 | 0.00 | 60 | 1005.5 |
| 20260508083400 | 43 | 235 | 0.0 | 0.0 | 0.00 | 0.00 | 0.00 | 60 | 1005.5 |
| 20260508082823 | 43 | 234 | 0.0 | 0.0 | 0.00 | 0.00 | 0.00 | 61 | 1005.5 |
| 20260508082359 | 43 | 234 | 0.0 | 0.0 | 0.00 | 0.00 | 0.00 | 62 | 1005.5 |
| 20260508081841 | 43 | 236 | 0.0 | 0.0 | 0.00 | 0.00 | 0.00 | 63 | 1005.5 |
| 20260508081323 | 42 | 221 | 0.0 | 0.0 | 0.00 | 0.00 | 0.00 | 64 | 1005.6 |
| 20260508080819 | 42 | 224 | 0.0 | 0.0 | 0.00 | 0.00 | 0.00 | 66 | 1005.6 |
| 20260508080327 | 42 | 225 | 0.0 | 0.0 | 0.00 | 0.00 | 0.00 | 67 | 1005.6 |
| 20260508075834 | 42 | 220 | 0.0 | 0.0 | 0.00 | 0.00 | 0.00 | 69 | 1005.7 |
| 20260508075323 | 41 | 215 | 0.0 | 0.0 | 0.00 | 0.00 | 0.00 | 71 | 1005.7 |
| 20260508074839 | 41 | 213 | 0.0 | 0.0 | 0.00 | 0.00 | 0.00 | 74 | 1005.7 |
| 20260508074313 | 41 | 213 | 0.0 | 0.0 | 0.00 | 0.00 | 0.00 | 76 | 1005.7 |
| 20260508073830 | 41 | 214 | 0.0 | 0.0 | 0.00 | 0.00 | 0.00 | 77 | 1005.7 |
| 20260508073325 | 41 | 213 | 0.0 | 0.0 | 0.00 | 0.00 | 0.00 | 76 | 1005.7 |
| 20260508072828 | 41 | 213 | 0.0 | 0.0 | 0.00 | 0.00 | 0.00 | 77 | 1005.7 |
| 20260508072315 | 41 | 213 | 0.0 | 0.0 | 0.00 | 0.00 | 0.00 | 77 | 1005.7 |
| 20260508071831 | 42 | 213 | 0.0 | 0.0 | 0.00 | 0.00 | 0.00 | 76 | 1005.8 |
| 20260508071315 | 42 | 213 | 0.0 | 0.0 | 0.00 | 0.00 | 0.00 | 76 | 1005.8 |
| 20260508070822 | 42 | 213 | 0.0 | 0.0 | 0.00 | 0.00 | 0.00 | 75 | 1005.8 |
| 20260508070318 | 42 | 213 | 0.0 | 0.0 | 0.00 | 0.00 | 0.00 | 73 | 1005.9 |
| 20260508065822 | 42 | 213 | 0.0 | 0.0 | 0.00 | 0.00 | 0.00 | 73 | 1005.9 |
| 20260508065318 | 42 | 213 | 0.0 | 0.0 | 0.00 | 0.00 | 0.00 | 71 | 1005.8 |
| 20260508064825 | 42 | 213 | 0.0 | 0.0 | 0.00 | 0.00 | 0.00 | 72 | 1005.8 |
| 20260508064317 | 43 | 213 | 0.0 | 0.0 | 0.00 | 0.00 | 0.00 | 72 | 1005.9 |
| 20260508063813 | 43 | 213 | 0.0 | 0.0 | 0.00 | 0.00 | 0.00 | 71 | 1005.9 |
| 20260508063350 | 43 | 213 | 0.0 | 0.0 | 0.00 | 0.00 | 0.00 | 71 | 1005.9 |
| 20260508062831 | 43 | 213 | 0.0 | 0.0 | 0.00 | 0.00 | 0.00 | 70 | 1006.0 |
| 20260508062320 | 43 | 214 | 0.0 | 0.0 | 0.00 | 0.00 | 0.00 | 69 | 1006.0 |
| 20260508061815 | 43 | 213 | 0.0 | 0.0 | 0.00 | 0.00 | 0.00 | 67 | 1006.1 |
| 20260508061317 | 44 | 214 | 0.0 | 0.0 | 0.00 | 0.00 | 0.00 | 68 | 1006.1 |
| 20260508060833 | 44 | 214 | 0.0 | 0.0 | 0.00 | 0.00 | 0.00 | 68 | 1006.1 |
| 20260508060322 | 44 | 213 | 0.0 | 0.0 | 0.00 | 0.00 | 0.00 | 66 | 1006.2 |
| 20260508055819 | 44 | 214 | 0.0 | 0.0 | 0.00 | 0.00 | 0.00 | 63 | 1006.2 |
| 20260508055315 | 44 | 214 | 0.0 | 0.0 | 0.00 | 0.00 | 0.00 | 60 | 1006.2 |
| 20260508054823 | 44 | 214 | 0.0 | 0.0 | 0.00 | 0.00 | 0.00 | 58 | 1006.3 |
| 20260508054324 | 45 | 214 | 0.0 | 0.0 | 0.00 | 0.00 | 0.00 | 57 | 1006.4 |
| 20260508053820 | 45 | 214 | 0.0 | 0.0 | 0.00 | 0.00 | 0.00 | 56 | 1006.4 |
| 20260508053328 | 45 | 214 | 0.0 | 0.0 | 0.00 | 0.00 | 0.00 | 55 | 1006.4 |
| 20260508052839 | 45 | 214 | 0.0 | 0.0 | 0.00 | 0.00 | 0.00 | 56 | 1006.4 |
| 20260508052326 | 46 | 214 | 0.0 | 0.0 | 0.00 | 0.00 | 0.00 | 55 | 1006.5 |
| 20260508051843 | 46 | 213 | 0.0 | 0.0 | 0.00 | 0.00 | 0.00 | 54 | 1006.5 |
| 20260508051326 | 46 | 214 | 0.0 | 0.0 | 0.00 | 0.00 | 0.00 | 52 | 1006.5 |
| 20260508050827 | 46 | 214 | 0.0 | 0.0 | 0.00 | 0.00 | 0.00 | 52 | 1006.4 |
| 20260508050323 | 46 | 213 | 0.0 | 0.0 | 0.00 | 0.00 | 0.00 | 52 | 1006.5 |
| 20260508045818 | 46 | 215 | 0.0 | 0.0 | 0.00 | 0.00 | 0.00 | 52 | 1006.5 |
| 20260508045334 | 46 | 215 | 0.0 | 0.0 | 0.00 | 0.00 | 0.00 | 52 | 1006.6 |
| 20260508044818 | 46 | 215 | 0.0 | 0.0 | 0.00 | 0.00 | 0.00 | 53 | 1006.6 |
| 20260508044344 | 46 | 215 | 0.0 | 0.0 | 0.00 | 0.00 | 0.00 | 54 | 1006.5 |
| 20260508043832 | 46 | 215 | 0.0 | 0.0 | 0.00 | 0.00 | 0.00 | 55 | 1006.6 |
| 20260508043328 | 46 | 215 | 0.0 | 0.0 | 0.00 | 0.00 | 0.00 | 56 | 1006.6 |
| 20260508042832 | 46 | 215 | 0.0 | 0.0 | 0.00 | 0.00 | 0.00 | 55 | 1006.7 |
| 20260508042320 | 47 | 215 | 0.0 | 0.0 | 0.00 | 0.00 | 0.00 | 55 | 1006.7 |
| 20260508041836 | 47 | 217 | 0.0 | 0.0 | 0.00 | 0.00 | 0.00 | 54 | 1006.7 |
| 20260508041320 | 47 | 217 | 0.0 | 0.0 | 0.00 | 0.00 | 0.00 | 52 | 1006.7 |
| 20260508040836 | 48 | 217 | 0.0 | 0.0 | 0.00 | 0.00 | 0.00 | 49 | 1006.7 |
| 20260508040353 | 48 | 217 | 0.0 | 0.0 | 0.00 | 0.00 | 0.00 | 48 | 1006.8 |
| 20260508035834 | 48 | 221 | 0.0 | 0.0 | 0.00 | 0.00 | 0.00 | 48 | 1006.8 |
| 20260508035322 | 48 | 221 | 0.0 | 0.0 | 0.00 | 0.00 | 0.00 | 48 | 1006.8 |
| 20260508034838 | 48 | 222 | 0.0 | 0.0 | 0.00 | 0.00 | 0.00 | 48 | 1006.9 |
| 20260508034338 | 48 | 222 | 0.0 | 0.0 | 0.00 | 0.00 | 0.00 | 49 | 1006.9 |
| 20260508033834 | 49 | 222 | 0.0 | 0.0 | 0.00 | 0.00 | 0.00 | 50 | 1007.0 |
| 20260508033321 | 49 | 222 | 0.0 | 0.0 | 0.00 | 0.00 | 0.00 | 48 | 1007.0 |
| 20260508032817 | 49 | 222 | 0.0 | 0.0 | 0.00 | 0.00 | 0.00 | 46 | 1007.0 |
| 20260508032351 | 50 | 223 | 0.0 | 0.0 | 0.00 | 0.00 | 0.00 | 45 | 1007.0 |
| 20260508031825 | 50 | 226 | 0.0 | 0.0 | 0.00 | 0.00 | 0.00 | 44 | 1007.0 |
| 20260508031329 | 50 | 228 | 0.0 | 0.0 | 0.00 | 0.00 | 0.00 | 42 | 1007.0 |
| 20260508030816 | 51 | 236 | 0.0 | 0.0 | 0.00 | 0.00 | 0.00 | 41 | 1007.0 |
| 20260508030332 | 51 | 236 | 0.0 | 0.0 | 0.00 | 0.00 | 0.00 | 40 | 1007.0 |
| 20260508025815 | 51 | 237 | 0.0 | 0.0 | 0.00 | 0.00 | 0.00 | 39 | 1007.1 |
| 20260508025331 | 51 | 238 | 0.0 | 0.0 | 0.00 | 0.00 | 0.00 | 38 | 1007.0 |
| 20260508024819 | 52 | 242 | 0.0 | 0.0 | 0.00 | 0.00 | 0.00 | 38 | 1007.1 |
| 20260508024322 | 52 | 242 | 0.0 | 0.0 | 0.00 | 0.00 | 0.00 | 37 | 1007.0 |
| 20260508023839 | 52 | 242 | 0.0 | 0.0 | 0.00 | 0.00 | 0.00 | 37 | 1007.0 |
| 20260508023326 | 52 | 244 | 0.0 | 0.0 | 0.00 | 0.00 | 0.00 | 37 | 1007.0 |
| 20260508022859 | 52 | 246 | 0.0 | 0.0 | 0.00 | 0.00 | 0.00 | 37 | 1006.8 |
| 20260508022342 | 52 | 248 | 0.0 | 0.0 | 0.00 | 0.00 | 0.00 | 38 | 1006.8 |
| 20260508021817 | 53 | 251 | 0.0 | 0.0 | 0.00 | 0.00 | 0.00 | 40 | 1006.8 |
| 20260508021340 | 53 | 275 | 0.0 | 0.0 | 0.00 | 0.00 | 0.00 | 36 | 1006.8 |
| 20260508020835 | 53 | 275 | 0.0 | 0.0 | 0.00 | 0.00 | 0.00 | 36 | 1006.8 |
| 20260508020323 | 54 | 275 | 0.0 | 0.0 | 0.00 | 0.00 | 0.00 | 37 | 1006.7 |
| 20260508015854 | 54 | 275 | 0.0 | 0.0 | 0.00 | 0.00 | 0.00 | 36 | 1006.7 |
| 20260508015320 | 55 | 275 | 0.0 | 0.0 | 0.00 | 0.00 | 0.00 | 35 | 1006.6 |
| 20260508014836 | 55 | 275 | 0.0 | 0.0 | 0.00 | 0.00 | 0.00 | 34 | 1006.6 |
| 20260508014318 | 55 | 276 | 0.0 | 0.0 | 0.00 | 0.00 | 0.00 | 33 | 1006.6 |
| 20260508013837 | 55 | 279 | 0.0 | 0.0 | 0.00 | 0.00 | 0.00 | 33 | 1006.6 |
| 20260508013323 | 56 | 284 | 0.0 | 0.0 | 0.00 | 0.00 | 0.00 | 32 | 1006.5 |
| 20260508012819 | 56 | 285 | 0.0 | 0.0 | 0.00 | 0.00 | 0.00 | 32 | 1006.5 |
| 20260508012335 | 56 | 280 | 0.0 | 0.0 | 0.00 | 0.00 | 0.00 | 32 | 1006.5 |
| 20260508011831 | 57 | 282 | 0.0 | 0.0 | 0.00 | 0.00 | 0.00 | 31 | 1006.5 |
| 20260508011334 | 57 | 296 | 0.0 | 0.0 | 0.00 | 0.00 | 0.00 | 31 | 1006.5 |
| 20260508010838 | 57 | 289 | 0.0 | 2.0 | 0.00 | 0.00 | 0.00 | 30 | 1006.4 |
| 20260508010313 | 57 | 329 | 0.0 | 2.0 | 0.00 | 0.00 | 0.00 | 30 | 1006.4 |
| 20260508005815 | 58 | 294 | 0.0 | 4.0 | 0.00 | 0.00 | 0.00 | 30 | 1006.4 |
| 20260508005322 | 58 | 286 | 0.0 | 4.0 | 0.00 | 0.00 | 0.00 | 30 | 1006.4 |
| 20260508004819 | 58 | 333 | 0.0 | 1.0 | 0.00 | 0.00 | 0.00 | 30 | 1006.3 |
| 20260508004320 | 58 | 292 | 0.0 | 1.0 | 0.00 | 0.00 | 0.00 | 30 | 1006.4 |
| 20260508003837 | 58 | 294 | 0.0 | 0.0 | 0.00 | 0.00 | 0.00 | 30 | 1006.4 |
| 20260508003325 | 58 | 283 | 0.0 | 0.0 | 0.00 | 0.00 | 0.00 | 30 | 1006.3 |
| 20260508002827 | 58 | 309 | 0.0 | 0.0 | 0.00 | 0.00 | 0.00 | 30 | 1006.3 |
| 20260508002344 | 58 | 331 | 0.0 | 0.0 | 0.00 | 0.00 | 0.00 | 30 | 1006.4 |